Regional Weather Roundup
Issued by NWS

Home | Current Version | Previous Version | Graphics & Text | Print | Product List | Glossary On
Versions: 1 2 3 4 5 6 7 8 9 10 11 12 13 14 15 16 17 18 19 20 21 22 23 24 25 26 27 28 29 30 31 32 33 34 35 36 37 38 39 40 41 42 43 44 45 46 47 48 49 50
672
ASUS45 KCYS 201110
RWRWY

WYOMING REGIONAL WEATHER ROUNDUP
NATIONAL WEATHER SERVICE CHEYENNE WY
500 AM MDT WED SEP 20 2017

NOTE:  "FAIR" INDICATES FEW OR NO CLOUDS BELOW 12,000 FEET
WITH NO SIGNIFICANT WEATHER AND/OR OBSTRUCTIONS TO VISIBILITY.

WYZ001-201200-
YELLOWSTONE NATIONAL PARK

CITY           SKY/WX    TMP DP  RH WIND       PRES   REMARKS
LK YELLOWSTONE NOT AVBL
W YELLOWSTONE  NOT AVBL

$$
WYZ002>013-054>058-071-098>099-201200-
NORTHERN WYOMING

CITY           SKY/WX    TMP DP  RH WIND       PRES   REMARKS
JACKSON        CLOUDY    36  28  73 W6        29.91R WCI  31
CODY           FAIR      43  25  49 W7        29.81R
GREYBULL       FAIR      37  36  96 SE3       29.80S
WORLAND        FAIR      35  35 100 S8        29.80F WCI  29
SHERIDAN       FAIR      48  25  40 VRB3      29.74R
BUFFALO        FAIR      39  27  62 SW9       29.78R WCI  33
GILLETTE       FAIR      42  31  64 SW17      29.77R
HULETT         FAIR      41  34  75 S9        29.79S
NEWCASTLE      FAIR      36  32  87 S7        29.84R WCI  30

$$
WYZ014>020-022>026-101>103-201200-
CENTRAL WYOMING

CITY           SKY/WX    TMP DP  RH WIND       PRES   REMARKS
BIG PINEY      FAIR      29  24  82 S9        29.97R WCI  20
PINEDALE       FAIR      27  25  93 E7        29.99R WCI  19
DUBOIS         FAIR      32  23  69 NW9       29.86S WCI  24
LANDER           N/A    N/A N/A N/A MISG      29.88S
RIVERTON       FAIR      38  23  55 S9        29.88S WCI  31
CASPER         FAIR      37  27  67 SW15      29.91R WCI  28
DOUGLAS        FAIR      44  23  43 W17G25    29.89R

$$
WYZ021-027>030-104>119-201200-
SOUTHERN WYOMING

CITY           SKY/WX    TMP DP  RH WIND       PRES   REMARKS
EVANSTON       FAIR      32  29  88 S6        30.00R WCI  26
KEMMERER         N/A     32  27  80 S3        29.99S
FORT BRIDGER   FAIR      38  28  67 SW9       30.02S WCI  31
ROCK SPRINGS   FAIR      34  28  79 S8        30.00S WCI  27
DIXON          CLOUDY    39  35  86 E6        30.06S WCI  35
RAWLINS        CLOUDY    37  31  78 SW12      29.99S WCI  29
SARATOGA       CLOUDY    37  32  81 SE7       30.03S WCI  32
LARAMIE        MOCLDY    38  26  62 SW15      30.00R WCI  29
CHEYENNE       MOCLDY    44  28  53 VRB5      29.97R
TORRINGTON     FAIR      50  27  40 W6        29.89R
PINE BLUFFS    CLOUDY    48  27  43 NW15G23   29.92F

$$




USA.gov is the U.S. government's official web portal to all federal, state and local government web resources and services.